Simultaneous Nadir Overpasses (SNOs) Predictions

Prediction of SNOs between METOP-A and NOAA-19 Satellite Orbit:

Table of predicted SNOs for the next 14.0 days since TLE Epoch: 3/4/2017
Index Date (METOP-A) Time (METOP-A) Lat,Lon (METOP-A) SZA (METOP-A ) Date (NOAA-19) Time (NOAA-19) Lat,Lon (NOAA-19) SZA (NOAA-19 ) Distance(km) Time Diff (sec)
1 03/14/2017 19:18:34 -77.09, 74.28 100.76 03/14/2017 19:17:21 -77.10, 73.43 100.75 21.11 73
2 03/14/2017 20:09:16 77.00,-118.77 79.14 03/14/2017 20:08:25 76.99,-118.83 79.13 1.94 51
3 03/14/2017 20:59:58 -76.99, 48.51 100.89 03/14/2017 20:59:20 -76.99, 48.43 100.89 1.98 38
4 03/14/2017 21:50:38 76.98,-144.18 79.09 03/14/2017 21:50:26 76.96,-144.21 79.07 2.44 12
5 03/14/2017 22:41:20 -76.97, 23.10 100.94 03/14/2017 22:41:21 -76.96, 23.06 100.95 1.24 1
6 03/14/2017 23:32:00 76.96,-169.60 79.05 03/14/2017 23:32:27 76.93,-169.58 79.01 3.61 27
7 03/15/2017 00:22:42 -76.95, -2.32 100.99 03/15/2017 00:23:22 -76.93, -2.32 101.00 2.00 40
8 03/15/2017 01:13:22 76.94, 164.99 79.00 03/15/2017 01:14:29 76.94, 164.86 79.00 3.33 67
9 03/15/2017 02:04:09 -76.71, -28.60 101.26 03/15/2017 02:05:20 -76.78, -27.15 101.18 37.58 71




NCC Satellite Simultaneous Nadir Overpasses (SNOs) Prediction Service
